Time,TemperatureF,DewpointF,PressureIn,WindDirection,WindDirectionDegrees,WindSpeedMPH,WindSpeedGustMPH,Humidity,HourlyPrecipIn,Conditions,Clouds,dailyrainin,SoftwareType,DateUTC
2013-02-14 00:02:00,35.0,33.0,-100.00,NNW,336,6.0,-999.0,92,-99.99,,,-99.99,,2013-02-14 05:02:00,
2013-02-14 00:11:00,35.0,33.0,-100.00,NNW,336,6.0,-999.0,92,-99.99,,,-99.99,,2013-02-14 05:11:00,
2013-02-14 00:22:00,35.0,33.0,-100.00,NW,323,5.0,-999.0,91,-99.99,,,-99.99,,2013-02-14 05:22:00,
2013-02-14 00:32:00,35.0,33.0,-100.00,NW,323,5.0,-999.0,91,-99.99,,,-99.99,,2013-02-14 05:32:00,
2013-02-14 00:42:00,35.0,33.0,-100.00,NW,323,5.0,-999.0,91,-99.99,,,-99.99,,2013-02-14 05:42:00,
2013-02-14 00:52:00,35.0,33.0,-100.00,WNW,300,5.0,-999.0,92,-99.99,,,-99.99,,2013-02-14 05:52:00,
2013-02-14 01:02:00,35.0,33.0,-100.00,WNW,300,5.0,-999.0,92,-99.99,,,-99.99,,2013-02-14 06:02:00,
2013-02-14 01:11:00,35.0,33.0,-100.00,WNW,300,5.0,-999.0,92,-99.99,,,-99.99,,2013-02-14 06:11:00,
2013-02-14 01:21:00,34.0,33.0,-100.00,NW,306,9.0,-999.0,93,-99.99,,,-99.99,,2013-02-14 06:21:00,
2013-02-14 01:32:00,34.0,33.0,-100.00,NW,306,9.0,-999.0,93,-99.99,,,-99.99,,2013-02-14 06:32:00,
2013-02-14 01:42:00,34.0,33.0,-100.00,NW,306,9.0,-999.0,93,-99.99,,,-99.99,,2013-02-14 06:42:00,
2013-02-14 01:52:00,34.0,33.0,-100.00,NW,308,9.0,-999.0,94,-99.99,,,-99.99,,2013-02-14 06:52:00,
2013-02-14 02:01:00,34.0,33.0,-100.00,NW,308,9.0,-999.0,94,-99.99,,,-99.99,,2013-02-14 07:01:00,
2013-02-14 02:11:00,34.0,33.0,-100.00,NW,308,9.0,-999.0,94,-99.99,,,-99.99,,2013-02-14 07:11:00,
2013-02-14 02:21:00,35.0,33.0,-100.00,NW,314,7.0,-999.0,94,-99.99,,,-99.99,,2013-02-14 07:21:00,
2013-02-14 02:32:00,35.0,33.0,-100.00,NW,314,7.0,-999.0,94,-99.99,,,-99.99,,2013-02-14 07:32:00,
2013-02-14 02:42:00,35.0,33.0,-100.00,NW,314,7.0,-999.0,94,-99.99,,,-99.99,,2013-02-14 07:42:00,
2013-02-14 02:52:00,35.0,33.0,-100.00,WNW,303,5.0,-999.0,93,-99.99,,,-99.99,,2013-02-14 07:52:00,
2013-02-14 03:01:00,35.0,33.0,-100.00,WNW,303,5.0,-999.0,93,-99.99,,,-99.99,,2013-02-14 08:01:00,
2013-02-14 03:11:00,35.0,33.0,-100.00,WNW,303,5.0,-999.0,93,-99.99,,,-99.99,,2013-02-14 08:11:00,
2013-02-14 03:22:00,35.0,33.0,-100.00,West,265,2.0,-999.0,92,-99.99,,,-99.99,,2013-02-14 08:22:00,
2013-02-14 03:32:00,35.0,33.0,-100.00,West,265,2.0,-999.0,92,-99.99,,,-99.99,,2013-02-14 08:32:00,
2013-02-14 03:43:00,35.0,33.0,-100.00,West,265,2.0,-999.0,92,-99.99,,,-99.99,,2013-02-14 08:43:00,
2013-02-14 03:52:00,35.0,33.0,-100.00,NW,311,5.0,-999.0,91,-99.99,,,-99.99,,2013-02-14 08:52:00,
2013-02-14 04:02:00,35.0,33.0,-100.00,NW,311,5.0,-999.0,91,-99.99,,,-99.99,,2013-02-14 09:02:00,
2013-02-14 04:11:00,35.0,33.0,-100.00,NW,311,5.0,-999.0,91,-99.99,,,-99.99,,2013-02-14 09:11:00,
2013-02-14 04:21:00,35.0,33.0,-100.00,West,261,3.0,-999.0,89,-99.99,,,-99.99,,2013-02-14 09:21:00,
2013-02-14 04:32:00,35.0,33.0,-100.00,West,261,3.0,-999.0,89,-99.99,,,-99.99,,2013-02-14 09:32:00,
2013-02-14 04:42:00,35.0,33.0,-100.00,West,261,3.0,-999.0,89,-99.99,,,-99.99,,2013-02-14 09:42:00,
2013-02-14 04:52:00,35.0,32.0,-100.00,West,268,5.0,-999.0,90,-99.99,,,-99.99,,2013-02-14 09:52:00,
2013-02-14 05:02:00,35.0,32.0,-100.00,West,268,5.0,-999.0,90,-99.99,,,-99.99,,2013-02-14 10:02:00,
2013-02-14 05:11:00,35.0,32.0,-100.00,West,268,5.0,-999.0,90,-99.99,,,-99.99,,2013-02-14 10:11:00,
2013-02-14 05:21:00,35.0,32.0,-100.00,WNW,295,5.0,-999.0,89,-99.99,,,-99.99,,2013-02-14 10:21:00,
2013-02-14 05:32:00,35.0,32.0,-100.00,WNW,295,5.0,-999.0,89,-99.99,,,-99.99,,2013-02-14 10:32:00,
2013-02-14 05:42:00,35.0,32.0,-100.00,WNW,295,5.0,-999.0,89,-99.99,,,-99.99,,2013-02-14 10:42:00,
2013-02-14 05:52:00,35.0,32.0,-100.00,WNW,302,7.0,-999.0,86,-99.99,,,-99.99,,2013-02-14 10:52:00,
2013-02-14 06:02:00,35.0,32.0,-100.00,WNW,302,7.0,-999.0,86,-99.99,,,-99.99,,2013-02-14 11:02:00,
2013-02-14 06:11:00,35.0,32.0,-100.00,WNW,302,7.0,-999.0,86,-99.99,,,-99.99,,2013-02-14 11:11:00,
2013-02-14 06:22:00,36.0,31.0,-100.00,NW,313,9.0,-999.0,82,-99.99,,,-99.99,,2013-02-14 11:22:00,
2013-02-14 06:32:00,36.0,30.0,-100.00,NW,319,11.0,-999.0,80,-99.99,,,-99.99,,2013-02-14 11:32:00,
2013-02-14 06:42:00,36.0,30.0,-100.00,NW,319,11.0,-999.0,80,-99.99,,,-99.99,,2013-02-14 11:42:00,
2013-02-14 06:52:00,35.0,30.0,-100.00,NW,311,8.0,-999.0,78,-99.99,,,-99.99,,2013-02-14 11:52:00,
2013-02-14 07:02:00,35.0,29.0,-100.00,NW,304,7.0,-999.0,78,-99.99,,,-99.99,,2013-02-14 12:02:00,
2013-02-14 07:12:00,35.0,29.0,-100.00,NW,304,7.0,-999.0,78,-99.99,,,-99.99,,2013-02-14 12:12:00,
2013-02-14 07:22:00,35.0,29.0,-100.00,NW,310,6.0,-999.0,77,-99.99,,,-99.99,,2013-02-14 12:22:00,
2013-02-14 07:32:00,35.0,28.0,-100.00,NW,313,7.0,-999.0,75,-99.99,,,-99.99,,2013-02-14 12:32:00,
2013-02-14 07:42:00,35.0,28.0,-100.00,NW,313,7.0,-999.0,75,-99.99,,,-99.99,,2013-02-14 12:42:00,
2013-02-14 07:53:00,35.0,28.0,-100.00,NW,312,9.0,-999.0,74,-99.99,,,-99.99,,2013-02-14 12:53:00,
2013-02-14 08:02:00,35.0,27.0,-100.00,NW,319,8.0,-999.0,72,-99.99,,,-99.99,,2013-02-14 13:02:00,
2013-02-14 08:11:00,35.0,27.0,-100.00,NW,319,8.0,-999.0,72,-99.99,,,-99.99,,2013-02-14 13:11:00,
2013-02-14 08:21:00,35.0,27.0,-100.00,NW,320,9.0,-999.0,70,-99.99,,,-99.99,,2013-02-14 13:21:00,
2013-02-14 08:32:00,36.0,26.0,-100.00,NW,312,9.0,-999.0,68,-99.99,,,-99.99,,2013-02-14 13:32:00,
2013-02-14 08:42:00,36.0,26.0,-100.00,NW,312,9.0,-999.0,68,-99.99,,,-99.99,,2013-02-14 13:42:00,
2013-02-14 08:52:00,36.0,26.0,-100.00,NW,316,10.0,-999.0,67,-99.99,,,-99.99,,2013-02-14 13:52:00,
2013-02-14 09:01:00,36.0,27.0,-100.00,NW,305,7.0,-999.0,67,-99.99,,,-99.99,,2013-02-14 14:01:00,
2013-02-14 09:11:00,36.0,27.0,-100.00,NW,305,7.0,-999.0,67,-99.99,,,-99.99,,2013-02-14 14:11:00,
2013-02-14 09:21:00,37.0,27.0,-100.00,NW,305,9.0,-999.0,65,-99.99,,,-99.99,,2013-02-14 14:21:00,
2013-02-14 09:32:00,37.0,26.0,-100.00,NW,305,10.0,-999.0,64,-99.99,,,-99.99,,2013-02-14 14:32:00,
2013-02-14 09:42:00,37.0,26.0,-100.00,NW,305,10.0,-999.0,64,-99.99,,,-99.99,,2013-02-14 14:42:00,
2013-02-14 09:52:00,37.0,26.0,-100.00,NW,314,11.0,-999.0,63,-99.99,,,-99.99,,2013-02-14 14:52:00,
2013-02-14 10:02:00,38.0,26.0,-100.00,NW,304,7.0,-999.0,62,-99.99,,,-99.99,,2013-02-14 15:02:00,
2013-02-14 10:11:00,38.0,26.0,-100.00,NW,304,7.0,-999.0,62,-99.99,,,-99.99,,2013-02-14 15:11:00,
2013-02-14 10:21:00,38.0,25.0,-100.00,NW,307,11.0,-999.0,58,-99.99,,,-99.99,,2013-02-14 15:21:00,
2013-02-14 10:32:00,38.0,24.0,-100.00,NW,309,12.0,-999.0,56,-99.99,,,-99.99,,2013-02-14 15:32:00,
2013-02-14 10:42:00,38.0,24.0,-100.00,NW,309,12.0,-999.0,56,-99.99,,,-99.99,,2013-02-14 15:42:00,
2013-02-14 10:52:00,39.0,24.0,-100.00,NW,314,12.0,-999.0,55,-99.99,,,-99.99,,2013-02-14 15:52:00,
2013-02-14 11:02:00,39.0,24.0,-100.00,NW,316,9.0,-999.0,54,-99.99,,,-99.99,,2013-02-14 16:02:00,
2013-02-14 11:11:00,39.0,24.0,-100.00,NW,316,9.0,-999.0,54,-99.99,,,-99.99,,2013-02-14 16:11:00,
2013-02-14 11:21:00,39.0,24.0,-100.00,NW,310,12.0,-999.0,54,-99.99,,,-99.99,,2013-02-14 16:21:00,
2013-02-14 11:32:00,40.0,24.0,-100.00,WNW,300,10.0,-999.0,54,-99.99,,,-99.99,,2013-02-14 16:32:00,
2013-02-14 11:42:00,40.0,24.0,-100.00,WNW,300,10.0,-999.0,54,-99.99,,,-99.99,,2013-02-14 16:42:00,
2013-02-14 11:52:00,40.0,24.0,-100.00,WNW,293,9.0,-999.0,52,-99.99,,,-99.99,,2013-02-14 16:52:00,
2013-02-14 12:01:00,41.0,24.0,-100.00,WNW,291,9.0,-999.0,51,-99.99,,,-99.99,,2013-02-14 17:01:00,
2013-02-14 12:11:00,41.0,24.0,-100.00,WNW,291,9.0,-999.0,51,-99.99,,,-99.99,,2013-02-14 17:11:00,
2013-02-14 12:21:00,41.0,24.0,-100.00,WNW,300,7.0,-999.0,50,-99.99,,,-99.99,,2013-02-14 17:21:00,
2013-02-14 12:32:00,42.0,23.0,-100.00,NW,311,8.0,-999.0,47,-99.99,,,-99.99,,2013-02-14 17:32:00,
2013-02-14 12:42:00,42.0,23.0,-100.00,NW,311,8.0,-999.0,47,-99.99,,,-99.99,,2013-02-14 17:42:00,
2013-02-14 12:52:00,42.0,23.0,-100.00,NW,315,7.0,-999.0,46,-99.99,,,-99.99,,2013-02-14 17:52:00,
2013-02-14 13:01:00,43.0,23.0,-100.00,NW,309,7.0,-999.0,45,-99.99,,,-99.99,,2013-02-14 18:01:00,
2013-02-14 13:11:00,43.0,23.0,-100.00,NW,309,7.0,-999.0,45,-99.99,,,-99.99,,2013-02-14 18:11:00,
2013-02-14 13:23:00,44.0,24.0,-100.00,WNW,302,6.0,-999.0,45,-99.99,,,-99.99,,2013-02-14 18:23:00,
2013-02-14 13:32:00,44.0,24.0,-100.00,WNW,288,7.0,-999.0,45,-99.99,,,-99.99,,2013-02-14 18:32:00,
2013-02-14 13:42:00,44.0,24.0,-100.00,WNW,288,7.0,-999.0,45,-99.99,,,-99.99,,2013-02-14 18:42:00,
2013-02-14 13:52:00,44.0,23.0,-100.00,NW,310,6.0,-999.0,44,-99.99,,,-99.99,,2013-02-14 18:52:00,
2013-02-14 14:02:00,45.0,23.0,-100.00,NW,322,6.0,-999.0,42,-99.99,,,-99.99,,2013-02-14 19:02:00,
2013-02-14 14:11:00,45.0,23.0,-100.00,NW,322,6.0,-999.0,42,-99.99,,,-99.99,,2013-02-14 19:11:00,
2013-02-14 14:22:00,45.0,24.0,-100.00,NW,322,5.0,-999.0,42,-99.99,,,-99.99,,2013-02-14 19:22:00,
2013-02-14 14:32:00,46.0,23.0,-100.00,WNW,302,4.0,-999.0,40,-99.99,,,-99.99,,2013-02-14 19:32:00,
2013-02-14 14:42:00,46.0,23.0,-100.00,WNW,302,4.0,-999.0,40,-99.99,,,-99.99,,2013-02-14 19:42:00,
2013-02-14 14:52:00,46.0,22.0,-100.00,WNW,289,3.0,-999.0,37,-99.99,,,-99.99,,2013-02-14 19:52:00,
2013-02-14 15:01:00,46.0,21.0,-100.00,WNW,290,5.0,-999.0,36,-99.99,,,-99.99,,2013-02-14 20:01:00,
2013-02-14 15:11:00,46.0,21.0,-100.00,WNW,290,5.0,-999.0,36,-99.99,,,-99.99,,2013-02-14 20:11:00,
2013-02-14 15:21:00,47.0,22.0,-100.00,WSW,252,5.0,-999.0,36,-99.99,,,-99.99,,2013-02-14 20:21:00,
2013-02-14 15:32:00,47.0,23.0,-100.00,South,185,4.0,-999.0,37,-99.99,,,-99.99,,2013-02-14 20:32:00,
2013-02-14 15:42:00,47.0,23.0,-100.00,South,185,4.0,-999.0,37,-99.99,,,-99.99,,2013-02-14 20:42:00,
2013-02-14 15:52:00,47.0,22.0,-100.00,SW,215,6.0,-999.0,36,-99.99,,,-99.99,,2013-02-14 20:52:00,
2013-02-14 16:02:00,48.0,22.0,-100.00,West,270,5.0,-999.0,36,-99.99,,,-99.99,,2013-02-14 21:02:00,
2013-02-14 16:11:00,48.0,22.0,-100.00,West,270,5.0,-999.0,36,-99.99,,,-99.99,,2013-02-14 21:11:00,
2013-02-14 16:22:00,47.0,23.0,-100.00,NW,316,5.0,-999.0,37,-99.99,,,-99.99,,2013-02-14 21:22:00,
2013-02-14 16:32:00,48.0,22.0,-100.00,WSW,237,3.0,-999.0,35,-99.99,,,-99.99,,2013-02-14 21:32:00,
2013-02-14 16:42:00,48.0,22.0,-100.00,WSW,237,3.0,-999.0,35,-99.99,,,-99.99,,2013-02-14 21:42:00,
2013-02-14 16:52:00,48.0,22.0,-100.00,NW,318,4.0,-999.0,36,-99.99,,,-99.99,,2013-02-14 21:52:00,
2013-02-14 17:02:00,48.0,22.0,-100.00,NNW,330,3.0,-999.0,36,-99.99,,,-99.99,,2013-02-14 22:02:00,
2013-02-14 17:11:00,48.0,22.0,-100.00,NNW,330,3.0,-999.0,36,-99.99,,,-99.99,,2013-02-14 22:11:00,
2013-02-14 17:21:00,48.0,23.0,-100.00,NW,304,2.0,-999.0,36,-99.99,,,-99.99,,2013-02-14 22:21:00,
2013-02-14 17:32:00,48.0,23.0,-100.00,SSW,199,4.0,-999.0,36,-99.99,,,-99.99,,2013-02-14 22:32:00,
2013-02-14 17:42:00,48.0,23.0,-100.00,SSW,199,4.0,-999.0,36,-99.99,,,-99.99,,2013-02-14 22:42:00,
2013-02-14 17:52:00,47.0,23.0,-100.00,SSW,193,6.0,-999.0,37,-99.99,,,-99.99,,2013-02-14 22:52:00,
2013-02-14 18:01:00,47.0,22.0,-100.00,South,177,7.0,-999.0,37,-99.99,,,-99.99,,2013-02-14 23:01:00,
2013-02-14 18:11:00,47.0,22.0,-100.00,South,177,7.0,-999.0,37,-99.99,,,-99.99,,2013-02-14 23:11:00,
2013-02-14 18:21:00,47.0,22.0,-100.00,South,172,8.0,-999.0,38,-99.99,,,-99.99,,2013-02-14 23:21:00,
2013-02-14 18:32:00,47.0,22.0,-100.00,South,188,8.0,-999.0,37,-99.99,,,-99.99,,2013-02-14 23:32:00,
2013-02-14 18:42:00,47.0,22.0,-100.00,South,188,8.0,-999.0,37,-99.99,,,-99.99,,2013-02-14 23:42:00,
2013-02-14 18:52:00,47.0,23.0,-100.00,South,191,7.0,-999.0,38,-99.99,,,-99.99,,2013-02-14 23:52:00,
2013-02-14 19:01:00,46.0,23.0,-100.00,South,189,7.0,-999.0,39,-99.99,,,-99.99,,2013-02-15 00:01:00,
2013-02-14 19:11:00,46.0,23.0,-100.00,South,189,7.0,-999.0,39,-99.99,,,-99.99,,2013-02-15 00:11:00,
2013-02-14 19:22:00,46.0,23.0,-100.00,South,179,7.0,-999.0,39,-99.99,,,-99.99,,2013-02-15 00:22:00,
2013-02-14 19:32:00,46.0,24.0,-100.00,SSW,199,5.0,-999.0,40,-99.99,,,-99.99,,2013-02-15 00:32:00,
2013-02-14 19:42:00,46.0,24.0,-100.00,SSW,199,5.0,-999.0,40,-99.99,,,-99.99,,2013-02-15 00:42:00,
2013-02-14 19:52:00,46.0,24.0,-100.00,South,187,5.0,-999.0,41,-99.99,,,-99.99,,2013-02-15 00:52:00,
2013-02-14 20:02:00,46.0,24.0,-100.00,SSW,194,6.0,-999.0,41,-99.99,,,-99.99,,2013-02-15 01:02:00,
2013-02-14 20:11:00,46.0,24.0,-100.00,SSW,194,6.0,-999.0,41,-99.99,,,-99.99,,2013-02-15 01:11:00,
2013-02-14 20:21:00,46.0,24.0,-100.00,SSE,166,5.0,-999.0,41,-99.99,,,-99.99,,2013-02-15 01:21:00,
2013-02-14 20:32:00,46.0,24.0,-100.00,South,182,5.0,-999.0,40,-99.99,,,-99.99,,2013-02-15 01:32:00,
2013-02-14 20:41:00,46.0,24.0,-100.00,South,182,5.0,-999.0,40,-99.99,,,-99.99,,2013-02-15 01:41:00,
2013-02-14 20:52:00,46.0,23.0,-100.00,South,183,6.0,-999.0,41,-99.99,,,-99.99,,2013-02-15 01:52:00,
2013-02-14 21:01:00,45.0,25.0,-100.00,ESE,115,3.0,-999.0,45,-99.99,,,-99.99,,2013-02-15 02:01:00,
2013-02-14 21:11:00,45.0,25.0,-100.00,ESE,115,3.0,-999.0,45,-99.99,,,-99.99,,2013-02-15 02:11:00,
2013-02-14 21:21:00,45.0,25.0,-100.00,ESE,116,3.0,-999.0,46,-99.99,,,-99.99,,2013-02-15 02:21:00,
2013-02-14 21:32:00,44.0,26.0,-100.00,ESE,113,4.0,-999.0,48,-99.99,,,-99.99,,2013-02-15 02:32:00,
2013-02-14 21:42:00,44.0,26.0,-100.00,ESE,113,4.0,-999.0,48,-99.99,,,-99.99,,2013-02-15 02:42:00,
2013-02-14 21:52:00,43.0,25.0,-100.00,SE,137,7.0,-999.0,49,-99.99,,,-99.99,,2013-02-15 02:52:00,
2013-02-14 22:02:00,43.0,24.0,-100.00,South,170,9.0,-999.0,46,-99.99,,,-99.99,,2013-02-15 03:02:00,
2013-02-14 22:11:00,43.0,24.0,-100.00,South,170,9.0,-999.0,46,-99.99,,,-99.99,,2013-02-15 03:11:00,
2013-02-14 22:22:00,42.0,24.0,-100.00,South,187,10.0,-999.0,49,-99.99,,,-99.99,,2013-02-15 03:22:00,
2013-02-14 22:32:00,41.0,26.0,-100.00,SSW,195,8.0,-999.0,53,-99.99,,,-99.99,,2013-02-15 03:32:00,
2013-02-14 22:42:00,41.0,26.0,-100.00,SSW,195,8.0,-999.0,53,-99.99,,,-99.99,,2013-02-15 03:42:00,
2013-02-14 22:52:00,41.0,27.0,-100.00,South,187,7.0,-999.0,58,-99.99,,,-99.99,,2013-02-15 03:52:00,
2013-02-14 23:01:00,41.0,28.0,-100.00,South,174,5.0,-999.0,60,-99.99,,,-99.99,,2013-02-15 04:01:00,
2013-02-14 23:11:00,41.0,28.0,-100.00,South,174,5.0,-999.0,60,-99.99,,,-99.99,,2013-02-15 04:11:00,
2013-02-14 23:21:00,41.0,29.0,-100.00,South,175,7.0,-999.0,61,-99.99,,,-99.99,,2013-02-15 04:21:00,
2013-02-14 23:32:00,40.0,29.0,-100.00,South,188,10.0,-999.0,64,-99.99,,,-99.99,,2013-02-15 04:32:00,
2013-02-14 23:42:00,40.0,29.0,-100.00,South,188,10.0,-999.0,64,-99.99,,,-99.99,,2013-02-15 04:42:00,
2013-02-14 23:52:00,40.0,30.0,-100.00,South,187,11.0,-999.0,67,-99.99,,,-99.99,,2013-02-15 04:52:00,